Miscellaneous Local Product
Issued by NWS North Platte, NE

Home | Current Version | Previous Version | Text Only | Print | Product List | Glossary On
Versions: 1 2 3 4 5 6 7 8 9 10 11 12 13 14 15 16 17 18 19 20 21 22 23 24 25 26 27 28 29 30 31 32 33 34 35 36 37 38 39 40 41 42 43 44 45 46 47 48 49 50
000
AXUS43 KLBF 261610
MISLBF


WESTERN AND NORTH CENTRAL NEBRASKA HOURLY WEATHER ROUNDUP
NATIONAL WEATHER SERVICE NORTH PLATTE NE
1100 AM CDT FRI AUG 26 2016

NOTE: "FAIR" INDICATES FEW OR NO CLOUDS BELOW 12,000 FEET WITH NO
SIGNIFICANT WEATHER AND/OR OBSTRUCTIONS TO VISIBILITY.

NOTE: STATIONS NOT REPORTING VARIABLES SUCH AS SKY/WEATHER OR
PRESSURE ARE PROVIDED BY RAWS AND APRS NETWORKS AND ARE NOT UNDER
NATIONAL WEATHER SERVICE QUALITY CONTROL.

...OBSERVATIONS IN AND NEAR THE EASTERN PANHANDLE OF NEBRASKA...

CITY           SKY/WX    TMP DP  RH WIND       PRES   REMARKS
PINE RIDGE     LGT RAIN  57  55  93 S5        30.14S
CHADRON        CLOUDY    58  55  90 N6        30.13S
ALLIANCE       LGT RAIN  57  53  86 SE14      30.12F
SIDNEY         HVY RAIN  58  56  93 S14       30.17R FOG
CRESCENT LAKE    N/A     60  54  81 S7          N/A
$$

...OBSERVATIONS IN NORTHERN NEBRASKA AND FAR SOUTHERN SOUTH DAKOTA...

CITY           SKY/WX    TMP DP  RH WIND       PRES   REMARKS
WINNER         PTSUNNY   69  52  54 S9        30.16R
VALENTINE      CLOUDY    66  53  63 S13       30.17F
THEDFORD       CLOUDY    68  54  61 SE10G17   30.17F
AINSWORTH      MOSUNNY   68  56  65 S8        30.17F
O`NEILL        CLOUDY    71  53  52 SE8       30.17S
ORD            CLOUDY    68  53  58 E9        30.15F
BROKEN BOW     CLOUDY    65  57  75 SE8       30.16F
VALENTINE NWR    N/A     65  55  70 S9          N/A
BUTTE            N/A     67  53  61 S6          N/A
HALSEY           N/A     64  54  70 SE5         N/A
EWING            N/A     69  58  68 S3          N/A
$$

...OBSERVATIONS IN SOUTHWEST NEBRASKA AND FAR NORTHEAST COLORADO...

CITY           SKY/WX    TMP DP  RH WIND       PRES   REMARKS
WRAY           FAIR      68  54  60 SE16      30.15S
HOLYOKE        FAIR      68  54  60 SE14      30.15
IMPERIAL       CLOUDY    68  55  63 SE17      30.14F
OGALLALA       MOSUNNY   68  54  60 S14G20    30.15S
NORTH PLATTE   CLOUDY    68  57  68 VRB7      30.15F
MCCOOK         CLOUDY    66  59  78 E8        30.15F
LEXINGTON      CLOUDY    65  57  75 E7        30.16F
STAPLETON        N/A     66  58  77 CALM        N/A
GOTHENBURG       N/A     61  55  81 SE5         N/A
CALLAWAY         N/A     62  60  93 S9          N/A
$$

...OBSERVATIONS IN CENTRAL LINCOLN COUNTY AREA...

CITY           SKY/WX    TMP DP  RH WIND       PRES   REMARKS
N.P. AIRPORT   CLOUDY    68  57  68 VRB7      30.15F
N.P. DOWNTOWN    N/A     66  57  72 SE5G14      N/A
N.P. SOUTHEAST   N/A     66  57  73 S8G15       N/A
N.P. HILLCREST   N/A     66  59  78 SE8G15      N/A
$$

...SOME OBSERVATIONS FROM AROUND THE REGION...

CITY           SKY/WX    TMP DP  RH WIND       PRES   REMARKS
DENVER         CLOUDY    58  51  78 W3        30.18S
LARAMIE        SUNNY     60  38  43 SW12G22   30.23F
CHEYENNE       CLOUDY    61  48  62 S6        30.19S
SCOTTSBLUFF    MOSUNNY   61  55  81 NW5       30.12S
RAPID CITY     CLOUDY    55  52  89 SE6       30.15F
BISMARCK       CLOUDY    60  51  72 SE6       30.12R
PIERRE         LGT RAIN  57  54  89 W9        30.20R
SIOUX FALLS    PTSUNNY   67  56  67 SE7       30.18S
OMAHA          CLOUDY    69  60  73 E10       30.13F
GRAND ISLAND   PTSUNNY   67  57  70 E9        30.15F
KANSAS CITY    CLOUDY    73  66  78 SE13      30.11F
WICHITA        PTSUNNY   74  68  81 S5        30.10R
OKLAHOMA CITY  MOSUNNY   82  68  62 CALM      30.08S
DALLAS         MOSUNNY   84  73  69 SE7       30.07S HX  90
AMARILLO       PTSUNNY   69  62  78 SW12      30.20R
DODGE CITY     CLOUDY    67  64  90 SE7       30.13R
HAYS           CLOUDY    66  55  68 NE7       30.11S
GOODLAND       MOSUNNY   66  57  72 SE9       30.15F
$$




USA.gov is the U.S. government's official web portal to all federal, state and local government web resources and services.